Location: Beuerbach
(48.1459°N, 10.9174°E)
Time: 20:57:58
(UTC+00:00)

Cosmos 2360 Rocket - Pass Details

Date: 23 May 2024
Orbit: 832 x 846 km, 71.0° (Epoch: 14 June)

Event Time Altitude Azimuth Distance (km) Brightness Sun altitude
Rises 01:57:57 0° 329° (NNW) 3,416 5.6 -11.9°
Reaches altitude 10° 02:00:26 10° 327° (NNW) 2,478 4.9 -11.7°
Maximum altitude 02:06:02 62° 248° (WSW) 952 2.2 -11.1°
Drops below altitude 10° 02:11:36 10° 169° (S) 2,460 4.3 -10.5°
Sets 02:14:03 0° 166° (SSE) 3,390 5.0 -10.2°
